Wind_Speed
23 25 26 26 26 27 27 28 30 29 29 29 29 29 29 29 30 30 31 32 32 33 32 31 30 30 30 30 28 28 28 28 29 30 30 30 30 30 29 29 29 29 29 28
24 24 26 26 26 27 27 28 29 29 29 29 29 29 29 30 30 31 30 30 31 32 31 31 31 31 30 31 30 29 30 30 31 32 32 31 30 30 29 28 28 28 28 28
24 25 27 26 26 27 28 28 29 29 28 29 29 29 29 30 30 30 29 29 29 30 30 32 32 32 32 31 31 31 31 32 32 32 32 31 31 31 30 29 28 27 28 28
24 25 26 26 26 27 28 29 29 28 28 28 29 29 29 30 30 30 30 29 30 30 31 32 32 31 31 32 32 32 33 33 32 33 33 32 32 30 30 30 29 28 28 28
25 25 26 26 26 26 27 26 27 27 27 28 29 29 29 30 31 30 30 30 30 30 30 31 31 31 31 31 32 32 31 31 32 32 32 32 31 30 30 29 29 29 29 30
25 25 25 24 24 25 25 25 25 25 26 26 27 28 28 29 30 30 30 30 30 30 30 30 30 30 29 29 30 30 29 30 31 31 31 30 30 30 31 30 29 29 29 30
24 24 23 23 23 23 23 23 23 24 24 25 26 26 27 28 28 28 29 29 29 29 29 28 28 28 28 28 28 28 28 28 29 30 30 30 29 30 30 30 30 30 30 29
23 23 23 22 22 22 22 22 22 23 24 25 26 25 26 27 27 27 27 28 28 28 27 26 26 26 27 27 27 28 28 28 29 28 29 29 30 30 30 30 30 31 31 30
23 23 23 22 22 22 22 23 23 24 24 25 24 25 25 25 26 26 26 26 26 26 25 25 24 25 26 26 27 27 27 28 28 28 28 29 29 29 29 30 29 28 28 28
22 22 22 22 23 23 23 23 23 24 24 24 24 24 24 24 25 24 24 24 24 24 24 24 25 26 26 26 26 26 26 27 27 28 28 28 27 28 28 28 28 27 27 28
22 22 22 21 22 23 23 23 23 24 24 24 23 23 24 24 24 24 24 24 23 24 24 25 25 25 25 25 25 26 26 27 27 27 27 27 27 26 26 26 27 27 27 27
22 22 23 22 22 23 23 23 24 24 23 23 23 23 23 23 24 24 22 23 23 23 24 24 24 25 25 25 25 25 26 26 26 26 26 26 26 26 25 25 25 25 25 25
22 23 23 23 23 23 23 23 23 23 23 23 23 23 23 23 24 23 23 22 22 22 22 23 22 22 22 23 23 24 24 25 25 24 25 25 25 24 24 23 23 24 24 25
22 23 23 23 23 23 23 23 23 23 23 23 23 23 23 23 24 23 23 22 21 21 22 22 21 21 22 22 22 22 22 23 24 24 24 24 23 23 22 23 23 23 24 25
22 23 23 22 23 22 22 23 23 23 23 23 23 23 24 23 24 23 22 20 20 21 22 22 22 21 22 22 21 21 21 21 21 22 22 21 21 21 21 21 22 22 23 24
21 22 22 22 22 21 21 22 22 22 22 22 23 23 23 23 23 23 21 21 21 21 21 21 22 21 21 21 21 20 20 20 20 20 20 20 20 20 20 21 21 22 22 23
20 20 21 21 21 21 20 21 21 21 21 21 21 22 22 22 22 23 22 21 21 21 21 22 22 22 22 21 20 20 20 20 19 19 18 18 18 18 19 19 20 21 21 21
20 21 21 21 21 20 20 20 21 21 21 21 21 22 22 22 22 23 22 22 21 21 22 22 21 21 20 20 20 19 18 18 18 18 17 17 17 17 17 17 18 19 20 21
20 21 21 21 21 21 21 21 21 21 21 21 21 21 22 22 22 22 22 21 21 21 21 21 20 20 19 19 18 17 17 17 17 17 16 16 16 16 16 15 16 17 19 20
20 20 21 21 21 22 22 21 21 21 21 21 21 21 21 21 21 21 21 20 19 19 19 19 18 18 17 17 17 16 16 16 17 16 15 15 15 15 15 15 15 16 17 19
20 20 21 21 21 21 21 21 21 21 21 21 21 21 21 21 20 19 19 19 18 18 18 18 17 17 17 16 15 15 16 16 16 15 14 14 14 14 15 16 17 17 17 17
20 20 20 20 20 20 20 20 20 20 21 21 21 20 19 19 18 18 18 18 17 17 16 16 16 16 16 15 15 15 15 15 15 15 14 14 14 15 16 17 17 16 16 16
20 20 19 19 20 20 20 20 20 20 20 20 19 19 18 18 18 17 17 16 16 15 15 15 15 15 16 15 15 15 15 15 15 15 14 14 15 14 15 15 15 15 15 15
20 19 19 18 18 19 19 19 19 19 19 18 18 17 17 17 17 17 16 15 15 15 15 15 15 15 15 15 14 15 15 15 14 14 14 15 15 14 14 13 13 13 13 13
19 19 19 18 18 18 18 18 18 17 17 17 16 16 15 15 16 15 15 15 15 16 15 15 15 14 14 14 14 14 14 14 14 14 14 14 14 14 13 13 13 13 13 13
19 19 19 18 18 17 17 16 16 16 16 15 15 15 15 15 15 15 15 15 15 15 15 14 14 14 14 14 14 14 14 14 14 15 15 14 14 14 14 14 14 13 13 12
19 19 19 18 17 16 15 15 14 14 14 14 13 13 14 14 14 14 14 14 14 14 14 15 15 14 14 14 14 14 14 14 14 15 14 14 14 14 14 13 13 12 12 12
Wind_Direction
265 265 265 265 267 269 270 272 275 278 279 280 282 282 281 282 283 283 284 283 281 279 279 277 275 273 273 274 273 271 272 271 271 271 272 272 273 273 273 271 270 267 267 266
268 268 266 265 267 269 271 274 277 279 280 282 282 282 282 283 283 283 283 282 280 278 277 275 274 272 272 272 272 271 271 272 273 274 274 273 274 274 273 270 268 266 265 264
269 270 269 269 269 269 272 275 278 280 282 283 283 284 284 284 284 283 282 281 279 278 276 275 274 272 271 272 273 273 273 274 275 275 277 274 274 274 273 270 268 267 263 263
272 272 271 274 274 274 275 276 279 281 282 283 285 286 285 286 286 284 283 283 281 280 279 276 274 274 274 273 274 274 275 276 277 279 279 277 276 273 272 269 267 266 264 264
273 274 274 275 276 278 278 279 280 282 282 282 285 287 287 288 288 286 285 284 283 283 283 280 276 274 274 274 275 275 275 275 275 277 277 275 273 271 270 268 266 264 263 264
273 275 277 278 277 279 281 281 281 282 282 283 284 286 288 288 288 287 286 284 284 283 283 281 277 275 275 275 275 276 276 276 275 275 275 273 271 270 269 268 265 262 261 263
276 278 280 279 279 281 282 284 283 285 285 287 288 288 289 290 290 289 287 286 286 286 284 282 278 275 274 275 275 276 276 277 276 275 274 272 272 270 268 266 265 262 261 261
276 277 281 282 280 281 284 286 287 288 289 290 291 291 292 292 291 291 290 288 288 288 286 283 280 279 277 277 275 274 275 275 275 275 274 272 271 270 269 267 266 264 262 259
277 278 279 280 280 281 283 285 287 288 289 290 291 293 294 294 292 291 290 289 288 288 287 286 284 283 282 280 277 275 274 274 274 274 275 274 273 270 269 268 267 266 261 260
277 278 279 279 279 280 282 284 285 286 287 289 292 294 294 294 292 291 290 290 290 288 287 287 285 284 284 281 277 276 274 274 274 274 273 273 273 271 270 269 268 265 261 259
278 280 280 280 281 283 283 285 287 287 288 288 290 293 295 295 294 294 293 292 289 290 290 290 287 284 283 281 278 275 274 275 275 274 273 271 272 271 270 269 267 264 260 258
278 280 281 281 281 283 285 286 288 288 288 289 289 292 294 294 295 297 293 291 291 291 291 291 290 288 285 282 281 278 277 276 276 275 274 272 271 270 270 268 266 264 260 259
280 281 283 283 283 285 286 286 288 290 290 290 292 293 294 294 295 296 293 292 291 291 291 291 292 292 289 286 284 283 280 278 277 276 277 272 270 268 266 264 264 261 260 259
281 284 285 285 285 286 286 287 288 290 291 292 293 293 293 294 294 295 296 296 293 292 292 293 294 294 292 290 288 286 285 282 278 277 277 272 269 266 264 264 264 262 260 258
281 283 284 285 286 287 288 288 289 290 290 291 293 294 294 294 295 294 295 294 293 292 294 294 295 295 293 291 290 288 287 285 282 279 276 272 269 267 266 265 263 261 260 259
281 284 285 285 287 288 287 289 290 290 289 290 293 295 296 296 295 295 296 294 293 293 294 295 295 295 294 293 291 290 288 287 284 282 278 274 271 269 268 267 265 263 262 260
282 284 286 287 287 289 289 289 290 290 290 291 294 295 296 296 294 293 296 296 295 294 295 296 296 295 295 293 290 290 289 287 285 283 281 276 273 272 270 270 269 266 262 259
285 286 287 289 290 290 289 290 291 291 291 291 293 294 294 293 294 295 296 296 296 297 297 297 296 295 295 294 293 291 290 288 285 283 281 277 275 274 272 272 268 265 260 258
287 288 286 286 288 288 287 288 289 289 289 291 293 295 295 295 295 295 296 297 296 297 296 295 294 294 294 294 294 293 291 289 286 286 285 279 274 272 271 271 270 267 264 262
289 289 288 287 286 286 285 287 288 290 291 292 295 296 295 294 294 295 295 296 296 295 296 294 293 293 294 295 295 293 292 290 288 287 289 282 275 270 269 269 270 270 268 266
288 289 289 288 288 287 285 286 287 290 291 293 294 294 293 291 292 294 295 297 298 296 295 294 293 293 293 294 293 292 293 292 290 289 289 284 277 271 271 272 273 274 272 268
289 290 290 290 290 288 287 287 289 290 292 293 294 293 291 290 290 292 294 296 298 298 295 294 295 294 294 293 292 294 295 296 296 292 291 289 285 279 275 274 273 273 273 270
291 290 290 290 289 288 287 288 288 289 290 293 294 292 290 289 290 290 292 295 298 300 299 297 296 296 296 294 292 292 296 297 297 296 294 293 291 287 284 280 277 274 274 272
295 294 293 293 291 289 288 288 287 288 289 291 292 291 290 290 289 288 289 292 297 300 301 301 299 297 296 298 296 295 295 294 293 295 296 294 292 293 294 290 284 280 278 275
293 294 294 294 294 293 291 287 286 287 288 289 290 291 291 291 290 289 289 291 294 298 299 300 302 301 298 298 296 293 292 293 294 296 297 296 294 293 293 290 287 286 285 282
293 293 295 293 294 296 293 290 288 288 287 288 288 288 290 291 290 291 292 293 295 295 296 298 299 301 299 298 297 294 293 295 296 297 297 297 295 293 290 288 287 287 285 283
295 294 294 295 294 295 294 293 292 293 292 291 290 290 291 293 294 293 293 294 294 292 292 294 296 299 299 296 295 294 293 294 295 296 297 299 300 297 291 289 288 286 284 283
Height
5802 5802 5802 5802 5802 5802 5801 5801 5801 5801 5800 5800 5798 5797 5795 5794 5792 5791 5789 5787 5786 5785 5784 5784 5784 5784 5785 5785 5785 5785 5786 5786 5786 5786 5786 5786 5785 5785 5784 5784 5784 5785 5785 5786
5795 5795 5795 5795 5796 5795 5795 5794 5794 5793 5793 5792 5791 5789 5787 5786 5784 5782 5781 5779 5777 5776 5776 5775 5776 5776 5776 5777 5777 5777 5777 5777 5777 5777 5776 5776 5776 5776 5775 5775 5775 5776 5776 5778
5789 5789 5788 5789 5789 5789 5788 5787 5787 5786 5786 5784 5782 5781 5779 5778 5776 5774 5772 5770 5769 5767 5767 5767 5767 5767 5767 5767 5768 5768 5767 5767 5767 5766 5766 5766 5766 5766 5766 5766 5766 5767 5768 5769
5783 5783 5782 5785 5782 5781 5780 5780 5779 5779 5778 5776 5775 5773 5771 5769 5767 5766 5764 5762 5760 5759 5758 5757 5757 5757 5758 5758 5758 5758 5758 5757 5757 5757 5757 5757 5757 5756 5756 5757 5757 5758 5759 5760
5777 5776 5776 5777 5776 5774 5773 5773 5772 5771 5771 5769 5767 5765 5764 5761 5759 5757 5755 5754 5752 5750 5749 5748 5748 5748 5749 5749 5748 5748 5748 5748 5748 5747 5747 5746 5747 5747 5747 5747 5748 5749 5750 5751
5770 5769 5769 5771 5769 5767 5768 5766 5766 5764 5763 5762 5760 5758 5757 5754 5751 5749 5747 5745 5743 5742 5740 5739 5739 5738 5739 5739 5739 5739 5739 5739 5738 5738 5737 5737 5737 5737 5737 5738 5738 5739 5741 5742
5763 5762 5763 5764 5762 5762 5762 5761 5759 5757 5756 5754 5753 5751 5749 5746 5743 5741 5739 5737 5735 5733 5732 5731 5730 5730 5730 5730 5730 5730 5730 5729 5729 5728 5728 5728 5727 5727 5727 5728 5728 5730 5731 5732
5758 5757 5759 5757 5756 5756 5755 5753 5752 5751 5749 5748 5746 5744 5741 5738 5736 5733 5731 5729 5727 5725 5723 5722 5722 5721 5721 5721 5721 5721 5721 5721 5720 5719 5718 5718 5718 5718 5718 5718 5719 5719 5720 5722
5753 5754 5752 5750 5750 5749 5748 5747 5746 5745 5743 5741 5739 5736 5734 5731 5729 5726 5724 5722 5719 5717 5716 5715 5714 5713 5713 5713 5712 5712 5712 5712 5711 5710 5709 5709 5709 5708 5708 5708 5709 5709 5710 5712
5746 5746 5745 5744 5743 5743 5742 5741 5740 5738 5737 5734 5732 5730 5727 5725 5722 5719 5717 5715 5712 5711 5709 5708 5706 5706 5705 5704 5704 5703 5703 5703 5702 5701 5700 5700 5699 5699 5699 5699 5700 5700 5701 5702
5740 5740 5739 5738 5737 5737 5736 5734 5733 5731 5730 5727 5725 5723 5721 5718 5715 5713 5710 5708 5706 5704 5703 5701 5699 5698 5697 5696 5695 5695 5694 5694 5693 5692 5691 5691 5691 5690 5690 5691 5691 5691 5692 5693
5734 5734 5733 5732 5731 5730 5729 5728 5726 5724 5723 5721 5719 5717 5714 5712 5709 5707 5704 5702 5700 5698 5696 5695 5693 5691 5690 5688 5687 5687 5686 5685 5684 5683 5682 5682 5681 5682 5681 5682 5682 5683 5684 5685
5728 5727 5726 5726 5725 5723 5722 5720 5719 5717 5716 5714 5712 5710 5708 5706 5703 5700 5698 5696 5694 5692 5690 5688 5686 5685 5683 5681 5680 5679 5678 5677 5676 5675 5674 5673 5673 5674 5674 5674 5674 5675 5676 5677
5721 5721 5720 5719 5717 5716 5715 5713 5712 5710 5709 5707 5705 5704 5701 5699 5697 5694 5692 5689 5688 5686 5684 5682 5680 5678 5677 5675 5674 5672 5671 5669 5668 5668 5667 5666 5666 5666 5667 5667 5667 5667 5668 5669
5715 5714 5713 5712 5710 5709 5708 5707 5705 5704 5702 5701 5699 5697 5695 5693 5691 5688 5686 5684 5682 5680 5678 5677 5675 5673 5671 5669 5667 5666 5664 5663 5662 5661 5660 5659 5659 5659 5660 5660 5660 5661 5661 5662
5708 5707 5706 5705 5704 5703 5701 5700 5699 5697 5696 5694 5692 5690 5688 5686 5684 5682 5680 5678 5676 5675 5673 5671 5669 5667 5665 5663 5661 5660 5658 5657 5656 5655 5654 5653 5653 5653 5653 5653 5654 5654 5655 5656
5702 5701 5700 5699 5698 5697 5695 5694 5692 5691 5689 5688 5686 5684 5682 5680 5678 5676 5674 5672 5670 5669 5667 5665 5663 5661 5659 5657 5655 5654 5653 5651 5650 5649 5648 5648 5647 5647 5647 5647 5647 5648 5648 5649
5696 5695 5694 5693 5691 5690 5689 5688 5686 5685 5683 5682 5680 5678 5677 5675 5673 5671 5669 5666 5665 5663 5661 5659 5657 5655 5653 5651 5650 5648 5647 5646 5645 5644 5643 5642 5642 5641 5641 5641 5641 5641 5641 5642
5689 5688 5687 5686 5685 5684 5683 5681 5680 5678 5677 5675 5674 5672 5671 5669 5667 5665 5663 5661 5659 5657 5655 5653 5652 5650 5648 5646 5644 5643 5642 5640 5639 5638 5637 5636 5636 5636 5635 5635 5635 5635 5635 5635
5683 5682 5681 5679 5678 5677 5676 5675 5673 5672 5670 5669 5668 5666 5665 5663 5661 5659 5657 5655 5654 5652 5650 5648 5647 5645 5644 5642 5640 5638 5637 5636 5635 5633 5632 5631 5631 5630 5631 5630 5630 5630 5629 5629
5677 5675 5674 5673 5671 5670 5669 5668 5667 5665 5664 5663 5661 5660 5659 5657 5656 5654 5652 5650 5648 5646 5645 5644 5642 5641 5639 5637 5636 5634 5633 5631 5630 5629 5628 5627 5626 5626 5626 5625 5625 5624 5623 5623
5671 5669 5667 5666 5664 5663 5662 5661 5660 5659 5658 5657 5655 5654 5652 5651 5650 5648 5647 5645 5643 5642 5640 5639 5638 5636 5634 5633 5631 5630 5629 5627 5626 5624 5623 5622 5622 5621 5621 5620 5619 5618 5618 5618
5664 5663 5661 5659 5658 5657 5655 5654 5653 5653 5652 5650 5649 5648 5647 5646 5645 5644 5642 5641 5639 5637 5636 5635 5633 5632 5630 5628 5627 5625 5624 5623 5622 5620 5619 5618 5617 5616 5615 5614 5614 5613 5613 5613
5658 5656 5655 5653 5652 5651 5649 5648 5647 5647 5646 5645 5644 5643 5642 5641 5640 5638 5637 5636 5635 5633 5632 5631 5629 5627 5626 5624 5623 5621 5620 5619 5618 5617 5616 5615 5614 5612 5611 5610 5609 5609 5608 5608
5653 5651 5650 5648 5647 5645 5644 5642 5642 5641 5640 5640 5639 5638 5637 5636 5635 5634 5633 5632 5630 5629 5628 5626 5625 5623 5622 5620 5619 5618 5616 5615 5614 5613 5612 5611 5610 5608 5607 5606 5605 5605 5604 5604
5648 5646 5645 5643 5642 5640 5639 5638 5637 5636 5636 5635 5634 5633 5632 5631 5631 5630 5629 5627 5626 5625 5624 5622 5621 5619 5618 5616 5615 5614 5612 5611 5610 5609 5608 5607 5605 5604 5604 5603 5602 5601 5601 5600
5643 5641 5640 5638 5637 5636 5635 5634 5633 5632 5631 5630 5630 5629 5628 5627 5626 5625 5624 5623 5621 5620 5619 5618 5617 5615 5614 5612 5611 5610 5608 5607 5606 5605 5604 5602 5601 5600 5599 5599 5598 5597 5597 5597